sat.trackr.live / text

‹ back to catalog

STARLINK-36833

NORAD 68109 · 2026-044J

PAYLOAD ACTIVE UNKNOWN

§ Identity

Operator
Country
US
Launch date
2026-03-08
Launch site
AFWTR
Launch vehicle
Mass (kg)
RCS (m²)

Purposes: comms

External: N2YO · Heavens-Above · Gunter

§ Orbital elements

Epoch: 2026-09-19T15:13:35.002560Z

Period
93.91 min
Inclination
97.2853°
Eccentricity
0.0001645
Mean motion
15.33445245 rev/d
Perigee alt
464.4 km
Apogee alt
466.7 km
Semi-major
6,843.7 km
B*
3.4035e-4
RAAN
221.5756°
Arg perigee
97.4387°
Mean anomaly
262.7043°
Rev number
3,130

§ Raw data

STARLINK-368331 68109U 26044J   26262.63443290  .00010929  00000+0  34035-3 0  99972 68109  97.2853 221.5756 0001645  97.4387 262.7043 15.33445245 31309

JSON: /api/v1/satellites/68109 · /tle

For live sub-satellite position, see the globe view (requires WebGL).

§ Visibility from observer

Set your observer location to see the next 7 days of passes ≥ 10°. The values pass through the URL so the page stays shareable.

No JS? Fill the form by hand. The geolocation button needs JavaScript.